Regional Weather Roundup
Issued by NWS Goodland, KS

Home | Current Version | Previous Version | Graphics & Text | Print | Product List | Glossary On
Versions: 1 2 3 4 5 6 7 8 9 10 11 12 13 14 15 16 17 18 19 20 21 22 23 24 25 26 27 28 29 30 31 32 33 34 35 36 37 38 39 40 41 42 43 44 45 46 47 48 49 50
000
ASUS43 KGLD 281259
RWRGLD

GOODLAND FORECAST AREA HOURLY WEATHER ROUNDUP
NATIONAL WEATHER SERVICE GOODLAND KS
700 AM MDT MON JUL 28 2014

...OFFICIAL OBSERVATIONS...

CITY           SKY/WX    TMP DP  RH WIND       PRES   REMARKS
GOODLAND KS    MOSUNNY   67  51  56 SE7       30.33R
HILL CITY KS   SUNNY     63  57  81 E6        30.32R
IMPERIAL NEB   MOSUNNY   61  55  81 E8        30.32S
MCCOOK NEB     MOSUNNY   60  56  86 E8        30.33R
AKRON CO       SUNNY     64  54  69 S6        30.34S
BURLINGTON CO  CLOUDY    66  63  90 S10       30.35R
LIMON CO       MOSUNNY   59  58  96 S6        30.38F
$$

...UNOFFICIAL OBSERVATIONS...

CITY           SKY/WX    TMP DP  RH WIND       PRES   REMARKS
COLBY KS       SUNNY     64  55  72 E9        30.33R
LENORA KS        N/A     59  32  36 MISG        N/A
NORTON KS      SUNNY     61  54  77 E6        30.32R
WAKEENEY KS      N/A     63  53  71 MISG        N/A
KIT CARSON CO    N/A     66  62  87 CALM        N/A
YUMA CO          N/A     61  54  76 SE5         N/A
$$



USA.gov is the U.S. government's official web portal to all federal, state and local government web resources and services.